DW5462 Weather Reports


time (UTC)temp
C
wind
direction
speed
KPH
gust
KPH
rain 1hr
cm
rain 24hr
cm
rain mn
cm
humidity
%
barometer
mb
20260502230033 8 267 0.0 0.0 0.00 0.00 0.00 71 1016.5
20260502224517 9 267 0.0 0.0 0.00 0.00 0.00 70 1016.6
20260502223015 9 267 0.0 0.0 0.00 0.00 0.00 69 1016.7
20260502221512 10 267 0.0 0.0 0.00 0.00 0.00 68 1016.7
20260502220015 10 267 0.0 0.0 0.00 0.00 0.00 67 1016.6
20260502214508 10 267 0.0 0.0 0.00 0.00 0.00 66 1016.7
20260502213014 11 267 0.0 0.0 0.00 0.00 0.00 64 1016.7
20260502211505 11 267 0.0 0.0 0.00 0.00 0.00 63 1016.8
20260502210005 12 267 0.0 0.0 0.00 0.00 0.00 62 1016.9
20260502204559 12 267 0.0 0.0 0.00 0.00 0.00 60 1017.0
20260502203117 13 267 0.0 0.0 0.00 0.00 0.00 58 1017.1
20260502201604 13 267 0.0 0.0 0.00 0.00 0.00 56 1017.2
20260502200059 14 267 0.0 0.0 0.00 0.00 0.00 55 1017.1
20260502194555 15 267 0.0 0.0 0.00 0.00 0.00 52 1017.2
20260502193101 16 267 0.0 0.0 0.00 0.00 0.00 50 1017.1
20260502191551 17 267 0.0 0.0 0.00 0.00 0.00 48 1017.1
20260502190050 18 267 0.0 0.0 0.00 0.00 0.00 45 1017.0
20260502184538 20 267 0.0 0.0 0.00 0.00 0.00 42 1016.9
20260502183032 22 267 0.0 0.0 0.00 0.00 0.00 36 1017.0
20260502181522 23 267 0.0 0.0 0.00 0.00 0.00 32 1016.9
20260502163011 25 267 0.0 0.0 0.00 0.00 0.00 21 1017.5
20260502161557 25 267 0.0 3.2 0.00 0.00 0.00 20 1017.7
20260502151608 25 271 0.0 6.4 0.00 0.00 0.00 22 1018.4
20260502123012 23 264 0.0 6.4 0.00 0.00 0.00 30 1020.2
20260502121513 23 281 0.0 8.0 0.00 0.00 0.00 32 1020.4
20260502114554 23 274 0.0 8.0 0.00 0.00 0.00 31 1020.9
20260502113103 23 270 0.0 6.4 0.00 0.00 0.00 31 1021.1
20260502111552 23 49 0.0 3.2 0.00 0.00 0.00 32 1021.3
20260502110049 23 55 0.0 3.2 0.00 0.00 0.00 33 1021.4
20260502104548 22 40 0.0 4.8 0.00 0.00 0.00 30 1021.6
20260502103043 22 49 0.0 6.4 0.00 0.00 0.00 33 1021.8
20260502101559 22 350 1.6 6.4 0.00 0.00 0.00 32 1021.9
20260502091520 21 292 0.0 3.2 0.00 0.00 0.00 38 1022.5
20260502071513 16 128 0.0 4.8 0.00 0.00 0.00 51 1022.9
20260502070115 15 140 0.0 3.2 0.00 0.00 0.00 56 1023.1
20260502064555 13 139 0.0 0.0 0.00 0.00 0.00 62 1023.2
20260502063048 12 140 0.0 0.0 0.00 0.00 0.00 70 1023.2
20260502061545 10 140 0.0 0.0 0.00 0.00 0.00 76 1023.2
20260502060044 9 140 0.0 0.0 0.00 0.00 0.00 81 1023.3
20260502054547 6 140 0.0 0.0 0.00 0.00 0.00 88 1023.4
20260502053031 4 140 0.0 0.0 0.00 0.00 0.00 91 1023.4
20260502051526 3 140 0.0 0.0 0.00 0.00 0.00 88 1023.3
20260502050017 2 140 0.0 0.0 0.00 0.00 0.00 86 1023.2
20260502044512 2 140 0.0 0.0 0.00 0.00 0.00 85 1023.2
20260502043007 2 140 0.0 0.0 0.00 0.00 0.00 84 1023.2
20260502041517 2 140 0.0 0.0 0.00 0.00 0.00 83 1023.3
20260502040004 2 140 0.0 0.0 0.00 0.00 0.00 82 1023.3
20260502034502 3 140 0.0 0.0 0.00 0.00 0.00 81 1023.3
20260502033100 3 140 0.0 0.0 0.00 0.00 0.00 81 1023.4
20260502031559 3 140 0.0 0.0 0.00 0.00 0.00 80 1023.5
20260502030050 3 140 0.0 0.0 0.00 0.00 0.00 79 1023.7
20260502024541 4 140 0.0 0.0 0.00 0.00 0.00 78 1023.9
20260502023027 4 140 0.0 0.0 0.00 0.00 0.00 78 1023.9
20260502021514 5 140 0.0 0.0 0.00 0.00 0.00 77 1024.0
20260502020057 5 140 0.0 0.0 0.00 0.00 0.00 76 1024.2
20260502014603 5 140 0.0 0.0 0.00 0.00 0.00 75 1024.2
20260502013034 5 140 0.0 0.0 0.00 0.00 0.00 74 1024.3
20260502011532 6 140 0.0 0.0 0.00 0.00 0.00 73 1024.3
20260502010016 6 140 0.0 0.0 0.00 0.00 0.00 72 1024.3
20260502004513 6 140 0.0 0.0 0.00 0.00 0.00 70 1024.4
20260502003010 7 140 0.0 0.0 0.00 0.00 0.00 69 1024.5
20260502001509 7 140 0.0 0.0 0.00 0.00 0.00 68 1024.5
20260502000003 8 140 0.0 0.0 0.00 0.00 0.00 66 1024.4
20260501234559 8 140 0.0 0.0 0.00 0.00 0.00 65 1024.5
20260501233114 9 140 0.0 0.0 0.00 0.00 0.00 63 1024.7
20260501231616 10 140 0.0 0.0 0.00 0.00 0.00 60 1024.6